Theta_e
325 324 324 325 326 325 327 329 329 329 329 328 329 330 329 328 328 327 327 325 324 323
325 325 325 328 329 324 325 330 329 329 329 329 330 330 328 328 327 327 327 325 324 323
327 328 330 330 327 326 328 328 328 328 329 328 330 329 326 326 327 325 325 325 324 323
328 330 330 329 328 328 328 327 328 327 328 329 328 327 327 327 327 325 324 324 324 324
330 330 329 328 328 327 327 329 331 330 329 328 328 328 328 327 328 326 324 324 324 324
331 331 330 330 329 328 328 328 327 327 326 325 325 327 326 327 327 326 326 325 323 322
332 333 332 332 330 329 328 327 327 326 325 326 327 327 327 326 325 325 326 325 323 322
333 332 332 332 331 330 330 330 329 327 327 328 329 330 327 326 327 325 324 323 323 323
332 330 330 331 330 330 330 330 330 327 328 327 330 327 328 330 324 322 321 319 319 319
333 331 331 332 331 330 330 330 329 327 327 327 327 324 324 328 322 319 317 316 316 318
333 333 332 331 331 330 330 329 328 327 328 326 328 321 322 325 323 318 317 317 318 316
334 332 331 329 330 332 329 329 328 327 325 326 328 323 320 321 319 317 316 315 315 316
333 331 329 330 331 330 330 329 328 327 327 324 325 319 316 316 317 314 312 315 317 316
331 331 330 330 329 330 328 325 324 325 324 324 322 320 314 313 314 313 314 313 312 311
Wind_Speed
8 5 5 6 4 4 4 4 5 5 5 5 4 2 2 2 3 3 4 6 4 3
7 8 7 7 6 5 5 4 6 6 6 5 4 4 2 2 3 4 4 5 4 3
10 8 7 6 7 7 6 6 6 6 6 5 5 4 3 3 3 3 3 3 5 5
9 8 8 7 7 7 6 7 7 7 6 6 6 5 4 5 5 5 5 4 6 7
9 9 8 7 7 7 8 7 7 6 6 6 6 5 6 6 5 6 6 6 6 7
10 9 10 10 8 7 7 7 6 6 7 6 6 6 6 6 6 6 7 6 6 7
15 13 11 10 10 8 7 7 7 7 7 6 6 6 7 6 7 7 6 6 6 7
14 11 10 11 11 9 8 8 7 7 6 6 6 6 7 6 7 6 6 6 6 6
5 4 10 8 9 9 8 8 7 7 7 7 6 9 9 8 6 6 6 6 5 6
17 15 14 13 9 11 11 6 8 7 6 6 6 8 8 9 6 6 5 5 6 7
15 17 11 10 10 10 6 8 6 6 8 3 2 2 12 14 6 5 6 6 6 6
17 14 10 10 11 9 5 4 6 3 2 5 6 9 11 10 6 6 6 4 6 4
5 5 5 5 4 1 3 4 5 6 5 6 6 8 10 8 4 4 3 3 4 5
8 8 7 7 4 2 3 0 2 5 6 4 5 5 4 8 4 3 2 2 3 4
Wind_Direction
167 170 180 181 185 183 186 179 173 185 185 219 211 226 236 225 227 214 224 207 197 186
172 174 175 192 171 178 190 186 189 189 198 219 229 215 230 255 244 221 222 227 225 207
181 176 185 174 183 177 184 189 181 192 206 215 230 237 235 269 268 236 245 227 221 233
176 171 176 177 183 189 181 187 192 198 207 219 229 241 240 250 260 237 248 242 227 237
170 171 178 193 195 185 194 191 200 196 206 220 231 241 237 252 249 233 241 239 234 250
178 182 193 194 194 194 197 195 198 200 206 219 233 236 244 238 250 245 244 246 233 250
185 197 194 189 198 198 197 191 201 207 211 220 236 236 242 244 243 243 241 246 238 245
184 185 194 187 192 197 197 199 215 204 219 230 231 238 235 244 249 244 254 255 254 250
123 218 211 203 200 185 208 209 197 213 221 224 235 239 239 233 232 238 237 259 288 275
172 187 198 204 207 204 201 190 214 211 224 236 247 278 262 232 223 234 237 248 268 282
162 211 203 192 197 215 188 193 211 215 228 206 292 307 302 280 232 216 235 234 244 255
187 198 189 192 209 214 168 148 202 193 185 177 245 246 267 255 209 218 237 243 256 265
175 186 187 223 266 105 136 170 188 187 193 210 243 249 246 210 182 208 221 253 278 289
103 106 104 99 97 115 313 254 212 217 233 251 246 274 243 186 171 197 228 277 294 284